TimeCDT,TemperatureF,Dew PointF,Humidity,Sea Level PressureIn,VisibilityMPH,Wind Direction,Wind SpeedMPH,Gust SpeedMPH,PrecipitationIn,Events,Conditions,WindDirDegrees,DateUTC
12:36 AM,33.8,30.2,87,29.94,2.0,East,8.1,-,0.00,Snow,Light Snow,90,2013-03-23 05:36:00
12:44 AM,33.8,30.2,87,29.94,1.0,East,6.9,-,0.00,Snow,Light Snow,90,2013-03-23 05:44:00
12:53 AM,33.1,30.9,92,29.99,1.0,East,8.1,-,0.00,Snow,Light Snow,90,2013-03-23 05:53:00
1:36 AM,32.0,30.2,93,29.93,2.0,ENE,5.8,-,0.01,Snow,Light Snow,60,2013-03-23 06:36:00
1:53 AM,32.0,30.2,93,29.93,3.0,NE,5.8,-,N/A,,Overcast,40,2013-03-23 06:53:00
2:28 AM,32.0,30.2,93,29.94,3.0,ENE,4.6,-,N/A,,Overcast,60,2013-03-23 07:28:00
2:53 AM,32.0,30.9,96,29.98,3.0,ENE,5.8,-,N/A,,Overcast,70,2013-03-23 07:53:00
3:24 AM,32.0,30.2,93,29.93,2.0,NE,6.9,-,0.00,Snow,Light Snow,50,2013-03-23 08:24:00
3:53 AM,32.0,30.9,96,29.98,1.8,ENE,8.1,-,0.00,Snow,Light Snow,70,2013-03-23 08:53:00
4:23 AM,32.0,30.2,93,29.93,0.8,ENE,10.4,-,0.01,Snow,Light Snow,60,2013-03-23 09:23:00
4:37 AM,32.0,30.2,93,29.93,1.0,ENE,10.4,-,0.01,Snow,Light Snow,60,2013-03-23 09:37:00
4:53 AM,30.9,30.0,96,29.95,1.2,NE,12.7,-,0.01,Snow,Light Snow,50,2013-03-23 09:53:00
5:14 AM,30.2,30.2,100,29.92,0.8,NE,13.8,-,0.00,Snow,Light Snow,40,2013-03-23 10:14:00
5:27 AM,30.2,30.2,100,29.93,0.8,NE,12.7,-,0.00,Snow,Light Snow,50,2013-03-23 10:27:00
5:53 AM,30.9,30.0,96,29.98,0.8,NE,8.1,-,0.01,Snow,Light Snow,50,2013-03-23 10:53:00
6:17 AM,30.2,28.4,93,29.95,0.5,NNE,13.8,-,0.01,Fog-Snow,Snow,30,2013-03-23 11:17:00
6:30 AM,30.2,28.4,93,29.95,0.5,NNE,15.0,-,0.01,Fog-Snow,Snow,30,2013-03-23 11:30:00
6:53 AM,30.0,28.0,92,30.00,0.5,NNE,17.3,-,0.01,Fog-Snow,Snow,30,2013-03-23 11:53:00
7:17 AM,28.4,26.6,93,29.96,0.8,NE,17.3,-,0.00,Snow,Light Snow,40,2013-03-23 12:17:00
7:53 AM,28.9,27.0,92,30.01,0.5,NE,16.1,-,0.00,Fog-Snow,Light Snow,50,2013-03-23 12:53:00
8:16 AM,28.4,26.6,93,29.98,0.5,NE,13.8,-,0.00,Fog-Snow,Light Snow,50,2013-03-23 13:16:00
8:53 AM,28.9,27.0,92,30.06,0.5,NE,13.8,-,0.00,Fog-Snow,Light Snow,40,2013-03-23 13:53:00
9:53 AM,28.9,27.0,92,30.05,0.5,NE,17.3,-,0.01,Fog-Snow,Snow,40,2013-03-23 14:53:00
10:05 AM,28.4,26.6,93,29.99,0.8,NE,18.4,26.5,0.00,Snow,Light Snow,40,2013-03-23 15:05:00
10:19 AM,30.2,26.6,86,29.99,1.0,NE,18.4,-,0.00,Snow,Light Snow,40,2013-03-23 15:19:00
10:28 AM,30.2,26.6,86,29.99,0.8,NE,20.7,26.5,0.00,Snow,Light Snow,40,2013-03-23 15:28:00
10:38 AM,30.2,26.6,86,29.99,1.0,NE,19.6,-,0.00,Snow,Light Snow,40,2013-03-23 15:38:00
10:53 AM,30.0,27.0,88,30.06,1.0,NE,19.6,-,0.00,Snow,Light Snow,40,2013-03-23 15:53:00
11:24 AM,30.2,26.6,86,29.99,1.8,NNE,20.7,26.5,0.00,Snow,Light Snow,30,2013-03-23 16:24:00
11:37 AM,30.2,26.6,86,29.99,1.0,NE,21.9,-,0.00,Snow,Light Snow,40,2013-03-23 16:37:00
11:53 AM,30.0,27.0,88,30.06,1.0,NE,20.7,-,0.00,Snow,Light Snow,40,2013-03-23 16:53:00
12:01 PM,30.2,26.6,86,30.00,0.8,NE,19.6,25.3,0.00,Snow,Light Snow,50,2013-03-23 17:01:00
12:06 PM,30.2,26.6,86,30.00,1.0,NE,19.6,27.6,0.00,Snow,Light Snow,40,2013-03-23 17:06:00
12:53 PM,30.9,27.0,85,30.07,1.8,NE,20.7,-,0.00,Snow,Light Snow,40,2013-03-23 17:53:00
1:04 PM,30.2,26.6,86,30.00,1.0,NE,19.6,-,0.00,Snow,Light Snow,50,2013-03-23 18:04:00
1:06 PM,30.2,26.6,86,30.00,0.8,NE,19.6,-,0.00,Snow,Light Snow,40,2013-03-23 18:06:00
1:33 PM,30.2,26.6,86,30.00,0.5,NE,20.7,-,0.00,Fog-Snow,Snow,40,2013-03-23 18:33:00
1:44 PM,30.2,26.6,86,30.00,0.5,NE,19.6,-,0.00,Fog-Snow,Snow,40,2013-03-23 18:44:00
1:53 PM,30.0,27.0,88,30.08,0.2,NNE,18.4,-,0.00,Fog-Snow,Snow,30,2013-03-23 18:53:00
2:20 PM,30.2,26.6,86,30.01,0.5,NE,21.9,29.9,0.00,Fog-Snow,Snow,40,2013-03-23 19:20:00
2:27 PM,30.2,26.6,86,30.01,0.5,NNE,21.9,-,0.00,Fog-Snow,Snow,30,2013-03-23 19:27:00
2:53 PM,28.9,26.1,89,30.08,1.0,NNE,21.9,-,0.00,Snow,Light Snow,20,2013-03-23 19:53:00
3:16 PM,28.4,24.8,86,30.01,1.2,North,24.2,-,0.00,Snow,Light Snow,10,2013-03-23 20:16:00
3:53 PM,28.0,24.1,85,30.09,1.0,North,20.7,-,0.00,Snow,Light Snow,10,2013-03-23 20:53:00
4:03 PM,28.4,24.8,86,30.02,0.5,North,25.3,28.8,0.00,Fog-Snow,Light Snow,360,2013-03-23 21:03:00
4:14 PM,28.4,24.8,86,30.02,0.5,North,21.9,-,0.00,Fog-Snow,Light Snow,10,2013-03-23 21:14:00
4:53 PM,28.0,25.0,88,30.11,0.5,North,25.3,28.8,0.00,Fog-Snow,Light Snow,360,2013-03-23 21:53:00
5:08 PM,28.4,24.8,86,30.04,0.5,North,21.9,-,0.00,Fog-Snow,Light Snow,10,2013-03-23 22:08:00
5:23 PM,28.4,24.8,86,30.05,0.8,North,23.0,28.8,0.00,Snow,Light Snow,10,2013-03-23 22:23:00
5:33 PM,26.6,24.8,93,30.05,0.8,North,25.3,31.1,0.00,Snow,Light Snow,10,2013-03-23 22:33:00
5:53 PM,27.0,24.1,89,30.13,0.8,North,19.6,-,0.00,Snow,Light Snow,10,2013-03-23 22:53:00
6:33 PM,26.6,23.0,86,30.07,0.8,North,20.7,-,0.00,Snow,Light Snow,10,2013-03-23 23:33:00
6:48 PM,26.6,23.0,86,30.07,0.8,North,18.4,-,0.00,Snow,Light Snow,10,2013-03-23 23:48:00
6:53 PM,26.1,24.1,92,30.15,0.8,North,24.2,-,0.00,Snow,Light Snow,360,2013-03-23 23:53:00
7:08 PM,26.6,23.0,86,30.07,0.8,North,18.4,-,0.00,Snow,Light Snow,10,2013-03-24 00:08:00
7:33 PM,26.6,21.2,80,30.07,1.2,North,23.0,-,0.00,Snow,Light Snow,10,2013-03-24 00:33:00
7:53 PM,26.1,21.0,81,30.16,2.0,North,23.0,32.2,0.00,,Overcast,10,2013-03-24 00:53:00
8:04 PM,26.6,21.2,80,30.08,4.0,North,21.9,-,0.00,,Haze,10,2013-03-24 01:04:00
8:53 PM,26.6,21.2,80,30.10,7.0,North,18.4,-,N/A,,Overcast,360,2013-03-24 01:53:00
9:53 PM,25.0,19.9,81,30.22,10.0,North,16.1,-,N/A,,Overcast,360,2013-03-24 02:53:00
10:53 PM,25.0,17.1,72,30.23,10.0,North,17.3,-,N/A,,Overcast,360,2013-03-24 03:53:00
11:53 PM,24.1,16.0,71,30.25,10.0,North,10.4,-,N/A,,Overcast,350,2013-03-24 04:53:00